Regional Weather Roundup
Issued by NWS Sioux Falls, SD

Home | Current Version | Previous Version | Text Only | Print | Product List | Glossary On
Versions: 1 2 3 4 5 6 7 8 9 10 11 12 13 14 15 16 17 18 19 20 21 22 23 24 25 26 27 28 29 30 31 32 33 34 35 36 37 38 39 40 41 42 43 44 45 46 47 48 49 50
000
ASUS43 KFSD 242110
RWRFSD

WEATHER ROUNDUP FOR SE SOUTH DAKOTA/SW MINNESOTA/NW IOWA
NATIONAL WEATHER SERVICE SIOUX FALLS SD
400 PM CDT FRI APR 24 2015

NOTE: "FAIR" INDICATES FEW OR NO CLOUDS BELOW 12,000 FEET WITH NO
SIGNIFICANT WEATHER AND OR OBSTRUCTIONS TO VISIBILITY.


SDZ038>040-050-052>070-242200-
SOUTHEAST SOUTH DAKOTA

CITY           SKY/WX    TMP DP  RH WIND       PRES   REMARKS
BROOKINGS      PTSUNNY   66  48  52 SE15      29.59F
CHAMBERLAIN    MOSUNNY   77  44  30 N6        29.47F
HURON          MOSUNNY   74  47  38 S8G21     29.50F
MADISON        FAIR      68  48  49 SE17G23   29.56F
MITCHELL       MOSUNNY   79  48  33 SW10      29.48F
SIOUX FALLS    CLOUDY    72  52  49 S16G24    29.54F
WINNER         FAIR      79  40  24 NE5       29.49F
YANKTON        MOSUNNY   77  52  41 S17       29.50F
$$

MNZ071-072-080-081-089-090-097-098-242200-
SOUTHWEST MINNESOTA

CITY           SKY/WX    TMP DP  RH WIND       PRES   REMARKS
FAIRMONT       CLOUDY    46  16  29 SE18G28   29.70F
JACKSON        CLOUDY    50  43  76 SE17G24   29.68F
LUVERNE        PTSUNNY   64  52  63 E15       29.59F
MARSHALL       CLOUDY    54  41  62 SE20G26   29.65F
MONTEVIDEO     PTSUNNY   54  45  71 S21G26    29.69F
REDWOOD FALLS  CLOUDY    49  42  77 SE17G24   29.70F
TRACY          CLOUDY    53  45  73 SE16      29.67F
WORTHINGTON    CLOUDY    54  45  71 SE18      29.65F
$$

IAZ001>003-012>014-020>022-031-032-NEZ013-014-SDZ071-242200-
NORTHWEST IOWA

CITY           SKY/WX    TMP DP  RH WIND       PRES   REMARKS
CHEROKEE       MOSUNNY   67  52  59 SE10G20   29.62F
DENISON        PTSUNNY   68  55  64 S13G20    29.60F
ESTHERVILLE    PTSUNNY   50  45  83 SE22      29.68F
LE MARS        SUNNY     73  54  49 SE12G18   29.58F
ORANGE CITY    MOSUNNY   70  52  52 SE14G20   29.58F
SHELDON        MOSUNNY   70  50  49 SE17G26   29.59F
SIOUX CITY     SUNNY     75  51  43 SE14G24   29.56F
SPENCER        MOSUNNY   59  48  67 SE21      29.66F
STORM LAKE     PTSUNNY   64  52  63 SE15G22   29.65F
$$

ABBREVIATIONS USED IN REMARKS
   TC - TEMPERATURE IN CELSIUS
  WCI - WIND CHILL INDEX
   HX - HEAT INDEX
  VSB - VISIBILITY



USA.gov is the U.S. government's official web portal to all federal, state and local government web resources and services.